Weather History for La Pocatiere, QC

Change the Weather History Date:

Saturday, October 6, 2012

  Actual Average Record
Temperature  
Mean Temperature 56 °F -  
Max Temperature 62 °F - - ()
Min Temperature 48 °F - - ()
Degree Days  
Heating Degree Days 10    
Growing Degree Days 6 (Base 50)    
Moisture  
Dew Point 52 °F    
Average Humidity 88    
Maximum Humidity 98    
Minimum Humidity 76    
Precipitation  
Precipitation 0.63 in - - ()
Sea Level Pressure  
Sea Level Pressure 29.68 in    
Wind  
Wind Speed 10 mph ()    
Max Wind Speed 18 mph    
Max Gust Speed 26 mph    
T = Trace of Precipitation, MM = Missing Value Source: Averaged Metar Reports

Daily Weather History Graph

Daily Weather History Graph

Search for Another Location

Airport:

Trip Planner

Search our weather history database for the weather conditions in past years. The results will help you decide how hot, cold, wet, or windy it might be!

Date:

Astronomy

Oct. 06, 2012 Rise Set
Actual Time 6:46 AM EDT 6:08 PM EDT
Civil Twilight 6:15 AM EDT 6:39 PM EDT
Nautical Twilight 5:40 AM EDT 7:14 PM EDT
Astronomical Twilight 5:04 AM EDT 7:50 PM EDT
Moon 10:03 PM EDT (10/6) 12:57 PM EDT (10/6)
Length of Visible Light 12h 23m
Length of Day
11h 22m
Waning Gibbous, 65% of the Moon is Illuminated
Oct 6
Waning Gibbous
Oct 8
Last Quarter
Oct 15
New
Oct 21
First Quarter
Oct 29
Full

Hourly Weather History & Observations

Time (EDT) Temp. Dew Point Humidity Pressure Visibility Wind Dir Wind Speed Gust Speed Precip Events Conditions
12:00 AM 60.6 °F 57.4 °F 89% 29.75 in - South 4.6 mph - N/A   Unknown
1:00 AM 61.7 °F 57.9 °F 87% 29.74 in - SSW 9.2 mph - N/A   Unknown
2:00 AM 62 °F 58 °F 81% 29.72 in - SSW 10.4 mph - -  
2:00 AM 61.5 °F 57.6 °F 87% 29.72 in - SSW 10.4 mph - N/A   Unknown
3:00 AM 61.9 °F 57.4 °F 85% 29.71 in - SSW 12.7 mph - N/A   Unknown
4:00 AM 60.8 °F 55.0 °F 81% 29.71 in - SW 12.7 mph - N/A   Unknown
5:00 AM 60.8 °F 53.6 °F 77% 29.70 in - SSW 15.0 mph 21.9 mph N/A   Unknown
6:00 AM 59.9 °F 52.3 °F 76% 29.70 in - SSW 11.5 mph 17.3 mph N/A   Unknown
7:00 AM 59.4 °F 51.6 °F 76% 29.70 in - SSW 13.8 mph 19.6 mph N/A   Unknown
8:00 AM 57 °F 53 °F 81% 29.68 in - SSW 6.9 mph - -  
8:00 AM 57.0 °F 52.9 °F 86% 29.68 in - SSW 6.9 mph - N/A   Unknown
9:00 AM 55.4 °F 53.4 °F 93% 29.68 in - SSW 8.1 mph - 0.08 in   Unknown
10:00 AM 53.8 °F 53.2 °F 98% 29.67 in - WSW 8.1 mph - 0.15 in   Unknown
11:00 AM 52.2 °F 51.6 °F 98% 29.64 in - WSW 4.6 mph - 0.24 in   Unknown
12:00 PM 53.1 °F 52.3 °F 97% 29.63 in - SW 10.4 mph - 0.14 in   Unknown
2:00 PM 52 °F 50 °F 92% 29.60 in - SSW 13.8 mph - -  
2:00 PM 52.3 °F 50.4 °F 93% 29.60 in - SSW 13.8 mph 20.7 mph 0.02 in   Unknown
3:00 PM 52.0 °F 49.8 °F 92% 29.62 in - SSW 15.0 mph - N/A   Unknown
4:00 PM 50.7 °F 48.9 °F 94% 29.62 in - SW 16.1 mph 24.2 mph 0.02 in   Unknown
5:00 PM 51.1 °F 49.5 °F 94% 29.63 in - SW 15.0 mph - N/A   Unknown
6:00 PM 50.9 °F 48.6 °F 92% 29.65 in - SW 13.8 mph - N/A   Unknown
7:00 PM 49.8 °F 47.7 °F 92% 29.67 in - SSW 15.0 mph - N/A   Unknown
8:00 PM 49 °F 47 °F 88% 29.68 in - SW 16.1 mph - -  
8:00 PM 49.3 °F 46.6 °F 90% 29.68 in - SW 16.1 mph - N/A   Unknown
9:00 PM 49.3 °F 46.4 °F 90% 29.69 in - SW 17.3 mph 23.0 mph N/A   Unknown
10:00 PM 49.1 °F 46.9 °F 92% 29.70 in - SW 13.8 mph - N/A   Unknown
11:00 PM 48.9 °F 45.5 °F 88% 29.69 in - SW 18.4 mph 26.5 mph N/A   Unknown